Flag for U.S.A. Weather past 2 weeks in Naples, Florida, U.S.A.

Now
75 °F

Thunderstorms. Fog.


Feels Like: 74 °F
Forecast: 75 / 89 °F
Wind: 30 mph from Northeast

Location: Naples Municipal

Current Time: Jul 3, 2015 at 6:39:24 PM

Latest Report: Jul 3, 2015 at 5:56 PM


Visibility: 2 mi

Pressure: 30.06 "Hg

Humidity: 90%

Dew point: 72 °F

Location of NaplesLocation

Historic Weather in Naples — Graph

°F

Naples temperature yesterday

Maximum temperature yesterday: 91 °F (at 12:53 PM)
Minimum temperature yesterday: 73 °F (at 4:53 AM)
Average temperature yesterday: 80 °F

Past Weeks' High & Low Weather Summary

 TemperatureHumidityPressure
High93 °F (Jun 30, 3:53 PM)97% (Jul 2, 5:53 AM)30.16 "Hg (Jul 2, 5:53 AM)
Low73 °F (Jul 2, 4:53 AM)49% (Jul 1, 12:53 PM)30.01 "Hg (Jun 28, 4:53 AM)
Average82 °F75%30.08 "Hg
* Reported Jun 18 4:53 PM — Jul 3 4:53 PM, Naples, Weather by CustomWeather, © 2015

Note: Actual official high and low records may vary slightly from our data, if they occured in-between our weather recording intervals... More about our weather records

Advertising

Naples weather history for previous 24 hours

 ConditionsComfort  
Time TempWeatherWind HumidityBarometerVisibility
4:53 PM
Fri, Jul 3
89 °FScattered clouds.9 mph61%30.03 "Hg10 mi
3:53 PM89 °FScattered clouds.9 mph61%30.03 "Hg10 mi
2:53 PM91 °FScattered clouds.12 mph57%30.04 "Hg10 mi
1:53 PM89 °FPartly sunny.12 mph61%30.06 "Hg10 mi
12:53 PM91 °FScattered clouds.8 mph50%30.08 "Hg10 mi
11:53 AM89 °FPassing clouds.5 mph57%30.09 "Hg10 mi
10:53 AM87 °FPassing clouds.8 mph65%30.08 "Hg10 mi
9:53 AM85 °FSunny.8 mph75%30.08 "Hg10 mi
8:53 AM82 °FSunny.6 mph77%30.08 "Hg10 mi
7:53 AM76 °FSunny.7 mph91%30.07 "Hg9 mi
6:53 AM74 °FClear.5 mph94%30.06 "Hg8 mi
5:53 AM75 °FClear.No wind90%30.04 "Hg10 mi
4:53 AM76 °FClear.No wind85%30.04 "Hg10 mi
3:53 AM75 °FClear.7 mph88%30.04 "Hg10 mi
2:53 AM77 °FClear.7 mph82%30.06 "Hg10 mi
1:53 AM77 °FClear.No wind85%30.07 "Hg10 mi
12:53 AM77 °FClear.5 mph85%30.09 "Hg10 mi
11:53 PM
Thu, Jul 2
77 °FClear.5 mph82%30.10 "Hg10 mi
10:53 PM78 °FPassing clouds.8 mph74%30.11 "Hg10 mi
9:53 PM78 °FPassing clouds.12 mph79%30.12 "Hg10 mi
8:53 PM77 °FScattered clouds.7 mph79%30.08 "Hg10 mi
7:53 PM79 °FPassing clouds.14 mph77%30.08 "Hg10 mi
6:53 PM80 °FSunny.6 mph74%30.04 "Hg10 mi
Weather by CustomWeather, © 2015

See weather overviewHow to use our weather pages